Weather History for Rhodes, Greece

Change the Weather History Date:

Sunday, March 10, 2013

  Actual Average Record
Temperature  
Mean Temperature 59 °F -  
Max Temperature 65 °F 64 °F 69 °F (2002)
Min Temperature 53 °F 52 °F 41 °F (2011)
Degree Days  
Heating Degree Days 6    
Growing Degree Days 9 (Base 50)    
Moisture  
Dew Point 54 °F    
Average Humidity 82    
Maximum Humidity 94    
Minimum Humidity 56    
Precipitation  
Precipitation 0.00 in 0.08 in - ()
Sea Level Pressure  
Sea Level Pressure 29.87 in    
Wind  
Wind Speed 3 mph ()    
Max Wind Speed 14 mph    
Max Gust Speed -    
Visibility 6.0 miles    
Events      
Averages and records for this station are not official NWS values.
T = Trace of Precipitation, MM = Missing Value Source: Averaged Metar Reports

Daily Weather History Graph

Daily Weather History Graph

Search for Another Location

Airport:

Trip Planner

Search our weather history database for the weather conditions in past years. The results will help you decide how hot, cold, wet, or windy it might be!

Date:

Astronomy

Mar. 10, 2013 Rise Set
Actual Time 6:25 AM EET 6:10 PM EET
Civil Twilight 6:00 AM EET 6:36 PM EET
Nautical Twilight 5:30 AM EET 7:06 PM EET
Astronomical Twilight 5:00 AM EET 7:36 PM EET
Moon 5:12 AM EET (3/10) 4:57 PM EET (3/10)
Length of Visible Light 12h 36m
Length of Day
11h 44m
Waning Crescent, 2% of the Moon is Illuminated
Mar 10
Waning Crescent
Mar 11
New
Mar 19
First Quarter
Mar 27
Full
Apr 3
Last Quarter

Hourly Weather History & Observations

Time (EET) Temp. Dew Point Humidity Pressure Visibility Wind Dir Wind Speed Gust Speed Precip Events Conditions
12:20 AM 55.4 °F 53.6 °F 94% 29.86 in 6.2 mi Variable 2.3 mph - N/A   Mostly Cloudy
12:50 AM 55.4 °F 53.6 °F 94% 29.86 in 6.2 mi Variable 2.3 mph - N/A   Mostly Cloudy
1:20 AM 55.4 °F 53.6 °F 94% 29.86 in 6.2 mi Variable 2.3 mph - N/A   Mostly Cloudy
1:50 AM 55.4 °F 53.6 °F 94% 29.86 in 5.6 mi Variable 2.3 mph - N/A   Mostly Cloudy
2:00 AM 55 °F 53 °F 92% 29.87 in 6 mi 2.3 mph - -   Mist
2:20 AM 55.4 °F 53.6 °F 94% 29.86 in 5.6 mi Variable 2.3 mph - N/A   Mostly Cloudy
2:50 AM 55.4 °F 53.6 °F 94% 29.86 in 5.6 mi Variable 2.3 mph - N/A   Mostly Cloudy
3:20 AM 55.4 °F 53.6 °F 94% 29.86 in 5.6 mi Variable 2.3 mph - N/A   Mostly Cloudy
3:50 AM 55.4 °F 53.6 °F 94% 29.83 in 5.6 mi Variable 2.3 mph - N/A   Mostly Cloudy
4:20 AM 55.4 °F 53.6 °F 94% 29.83 in 5.6 mi Variable 2.3 mph - N/A   Mostly Cloudy
4:50 AM 53.6 °F 51.8 °F 94% 29.83 in 5.6 mi Variable 2.3 mph - N/A   Scattered Clouds
5:20 AM 53.6 °F 51.8 °F 94% 29.83 in 5.6 mi Variable 2.3 mph - N/A   Scattered Clouds
5:50 AM 53.6 °F 51.8 °F 94% 29.86 in 5.6 mi Variable 2.3 mph - N/A   Scattered Clouds
6:20 AM 53.6 °F 51.8 °F 94% 29.86 in 5.6 mi Variable 2.3 mph - N/A   Scattered Clouds
6:50 AM 53.6 °F 51.8 °F 94% 29.86 in 5.6 mi Calm Calm - N/A   Scattered Clouds
7:20 AM 55.4 °F 53.6 °F 94% 29.86 in 5.6 mi Calm Calm - N/A   Scattered Clouds
7:50 AM 55.4 °F 51.8 °F 88% 29.86 in 5.6 mi Variable 3.5 mph - N/A   Scattered Clouds
8:00 AM 55 °F 51 °F 83% 29.88 in 6 mi 3.5 mph - -   Mist
8:20 AM 57.2 °F 51.8 °F 82% 29.86 in 6.2 mi Variable 1.2 mph - N/A   Scattered Clouds
8:50 AM 60.8 °F 46.4 °F 59% 29.89 in 6.2 mi Calm Calm - N/A   Scattered Clouds
9:20 AM 62.6 °F 48.2 °F 59% 29.89 in 6.2 mi Variable 1.2 mph - N/A   Scattered Clouds
9:50 AM 64.4 °F 48.2 °F 56% 29.86 in 6.2 mi Variable 1.2 mph - N/A   Scattered Clouds
10:20 AM 64.4 °F 48.2 °F 56% 29.86 in 6.2 mi Variable 3.5 mph - N/A   Scattered Clouds
10:50 AM 64.4 °F 53.6 °F 68% 29.89 in 6.2 mi West 4.6 mph - N/A   Scattered Clouds
11:20 AM 64.4 °F 53.6 °F 68% 29.89 in 6.2 mi Variable 3.5 mph - N/A   Scattered Clouds
11:50 AM 64.4 °F 53.6 °F 68% 29.89 in 6.2 mi Variable 3.5 mph - N/A   Scattered Clouds
12:20 PM 64.4 °F 53.6 °F 68% 29.89 in 6.2 mi WNW 4.6 mph - N/A   Scattered Clouds
12:50 PM 64.4 °F 53.6 °F 68% 29.89 in 6.2 mi Variable 3.5 mph - N/A   Scattered Clouds
1:20 PM 64.4 °F 53.6 °F 68% 29.89 in 6.2 mi Variable 3.5 mph - N/A   Scattered Clouds
1:50 PM 66.2 °F 57.2 °F 73% 29.89 in 6.2 mi Variable 2.3 mph - N/A   Mostly Cloudy
2:00 PM 65 °F 57 °F 69% 29.89 in 6 mi WNW 2.3 mph - -   Partly Cloudy
2:20 PM 66.2 °F 57.2 °F 73% 29.89 in 6.2 mi Variable 2.3 mph - N/A   Mostly Cloudy
2:50 PM 64.4 °F 59.0 °F 83% 29.89 in 6.2 mi West 6.9 mph - N/A   Mostly Cloudy
3:20 PM 64.4 °F 59.0 °F 83% 29.86 in 6.2 mi West 4.6 mph - N/A   Mostly Cloudy
3:50 PM 62.6 °F 57.2 °F 82% 29.86 in 6.2 mi Variable 3.5 mph - N/A   Mostly Cloudy
4:20 PM 62.6 °F 57.2 °F 82% 29.86 in 6.2 mi Variable 3.5 mph - N/A   Mostly Cloudy
4:50 PM 64.4 °F 57.2 °F 77% 29.86 in 6.2 mi Variable 1.2 mph - N/A   Mostly Cloudy
5:20 PM 62.6 °F 57.2 °F 82% 29.86 in 6.2 mi Variable 3.5 mph - N/A   Mostly Cloudy
5:50 PM 62.6 °F 57.2 °F 82% 29.86 in 6.2 mi Variable 3.5 mph - N/A   Mostly Cloudy
6:20 PM 62.6 °F 57.2 °F 82% 29.86 in 6.2 mi Variable 3.5 mph - N/A   Scattered Clouds
6:50 PM 60.8 °F 53.6 °F 77% 29.89 in 6.2 mi Variable 3.5 mph - N/A   Scattered Clouds
7:20 PM 60.8 °F 53.6 °F 77% 29.89 in 6.2 mi Variable 3.5 mph - N/A   Scattered Clouds
7:50 PM 59.0 °F 53.6 °F 82% 29.86 in 6.2 mi Variable 3.5 mph - N/A   Scattered Clouds
8:00 PM 60 °F 54 °F 74% 29.87 in 6 mi 3.5 mph - -   Scattered Clouds
8:20 PM 59.0 °F 53.6 °F 82% 29.86 in 6.2 mi Variable 3.5 mph - N/A   Scattered Clouds
8:50 PM 59.0 °F 53.6 °F 82% 29.86 in 6.2 mi Variable 3.5 mph - N/A   Scattered Clouds
9:20 PM 59.0 °F 53.6 °F 82% 29.86 in 6.2 mi Variable 3.5 mph - N/A   Scattered Clouds
9:50 PM 57.2 °F 55.4 °F 94% 29.86 in 6.2 mi Variable 3.5 mph - N/A   Scattered Clouds
10:20 PM 57.2 °F 55.4 °F 94% 29.86 in 6.2 mi Variable 3.5 mph - N/A   Scattered Clouds
10:50 PM 57.2 °F 55.4 °F 94% 29.86 in 6.2 mi ESE 9.2 mph - N/A   Scattered Clouds
11:20 PM 57.2 °F 55.4 °F 94% 29.86 in 6.2 mi SE 11.5 mph - N/A   Scattered Clouds
11:50 PM 57.2 °F 53.6 °F 88% 29.86 in 6.2 mi SE 13.8 mph - N/A   Scattered Clouds